TAR67F LMML-DTTA

Flight info

Callsign TAR67F
Flight time N/A
Altitude 22000
Route GZO M978 SONAK
Aircraft A320/M-SDE3FGHIRWY/LB1

Departure

Time N/A
Airport Malta International Airport (LMML)

Arrival

Time 2026-04-28 20:29
Airport Tunis Carthage International Airport (DTTA)
Time Latitude Longitude Altitude Speed Heading
2026-04-28 19:57 36.28533 13.11504 17689 ft 330 kts 284°
2026-04-28 19:57 36.29143 13.08763 17814 ft 330 kts 284°
2026-04-28 19:57 36.29751 13.06018 17955 ft 330 kts 284°
2026-04-28 19:58 36.30357 13.03263 18083 ft 330 kts 284°
2026-04-28 19:58 36.30958 13.00525 18215 ft 330 kts 284°
2026-04-28 19:58 36.31566 12.97776 18347 ft 330 kts 284°
2026-04-28 19:58 36.32172 12.95029 18458 ft 330 kts 284°
2026-04-28 19:59 36.32773 12.92307 18579 ft 330 kts 284°
2026-04-28 19:59 36.33377 12.89562 18690 ft 330 kts 284°
2026-04-28 19:59 36.33981 12.86811 18807 ft 330 kts 284°
2026-04-28 19:59 36.34584 12.84071 19032 ft 325 kts 284°
2026-04-28 20:00 36.35160 12.81461 19810 ft 302 kts 284°
2026-04-28 20:00 36.35695 12.79035 20591 ft 284 kts 284°
2026-04-28 20:00 36.36207 12.76695 21254 ft 280 kts 284°
2026-04-28 20:00 36.36714 12.74374 21858 ft 281 kts 284°
2026-04-28 20:01 36.37224 12.72031 22016 ft 283 kts 284°
2026-04-28 20:01 36.37757 12.69582 22055 ft 304 kts 284°
2026-04-28 20:01 36.38327 12.66963 22062 ft 325 kts 284°
2026-04-28 20:01 36.38933 12.64177 22057 ft 344 kts 284°
2026-04-28 20:02 36.39573 12.61233 22061 ft 363 kts 284°
2026-04-28 20:02 36.40249 12.58126 22053 ft 380 kts 284°
2026-04-28 20:02 36.40941 12.54933 22049 ft 395 kts 284°
2026-04-28 20:02 36.41662 12.51607 22055 ft 401 kts 284°
2026-04-28 20:03 36.42387 12.48257 22058 ft 403 kts 284°
2026-04-28 20:03 36.43116 12.44898 22049 ft 403 kts 284°
2026-04-28 20:03 36.43843 12.41529 22053 ft 403 kts 284°
2026-04-28 20:03 36.44564 12.38172 22048 ft 403 kts 284°
2026-04-28 20:04 36.45287 12.34800 22047 ft 403 kts 284°
2026-04-28 20:04 36.46007 12.31438 22048 ft 404 kts 284°
2026-04-28 20:04 36.46727 12.28067 22044 ft 397 kts 284°
2026-04-28 20:04 36.47423 12.24809 22050 ft 388 kts 284°
2026-04-28 20:05 36.48116 12.21570 22046 ft 386 kts 284°
2026-04-28 20:05 36.48814 12.18350 22048 ft 385 kts 284°
2026-04-28 20:05 36.49501 12.15136 22046 ft 385 kts 283°
2026-04-28 20:05 36.50122 12.11949 22044 ft 385 kts 281°
2026-04-28 20:06 36.50632 12.08688 22045 ft 385 kts 279°
2026-04-28 20:06 36.51067 12.05405 22039 ft 385 kts 278°
2026-04-28 20:06 36.51470 12.02114 22041 ft 385 kts 278°
2026-04-28 20:06 36.51874 11.98820 22041 ft 385 kts 278°
2026-04-28 20:07 36.52288 11.95544 22037 ft 385 kts 278°
2026-04-28 20:07 36.52572 11.93362 22036 ft 385 kts 278°
2026-04-28 20:07 36.53160 11.88977 22032 ft 385 kts 279°
2026-04-28 20:07 36.53606 11.85693 22030 ft 385 kts 279°
2026-04-28 20:08 36.54053 11.82407 22028 ft 385 kts 279°
2026-04-28 20:08 36.54493 11.79168 22028 ft 385 kts 279°
2026-04-28 20:08 36.54941 11.75846 22024 ft 385 kts 278°
2026-04-28 20:08 36.55378 11.72591 22024 ft 385 kts 278°
2026-04-28 20:09 36.55821 11.69279 22025 ft 385 kts 278°
2026-04-28 20:09 36.56256 11.66020 22025 ft 385 kts 278°
2026-04-28 20:09 36.56692 11.62745 22025 ft 385 kts 278°
2026-04-28 20:09 36.57131 11.59445 22024 ft 386 kts 278°
2026-04-28 20:10 36.57566 11.56161 22024 ft 386 kts 278°
2026-04-28 20:10 36.58002 11.52850 22025 ft 386 kts 278°
2026-04-28 20:10 36.58435 11.49557 22026 ft 386 kts 278°
2026-04-28 20:10 36.58871 11.46248 22023 ft 387 kts 278°
2026-04-28 20:11 36.59304 11.42959 22024 ft 387 kts 278°
2026-04-28 20:11 36.59740 11.39645 22024 ft 387 kts 278°
2026-04-28 20:11 36.60173 11.36347 22024 ft 387 kts 278°
2026-04-28 20:11 36.60603 11.33032 22022 ft 388 kts 278°
2026-04-28 20:12 36.61034 11.29717 22029 ft 388 kts 278°
2026-04-28 20:12 36.61464 11.26394 21882 ft 390 kts 278°
2026-04-28 20:12 36.61892 11.23076 21578 ft 387 kts 278°
2026-04-28 20:12 36.62175 11.20886 21404 ft 387 kts 278°
2026-04-28 20:13 36.62742 11.16476 21073 ft 386 kts 278°
2026-04-28 20:13 36.63167 11.13183 20820 ft 385 kts 278°
2026-04-28 20:13 36.63586 11.09940 20501 ft 381 kts 278°
2026-04-28 20:13 36.64004 11.06701 19992 ft 378 kts 278°
2026-04-28 20:14 36.64417 11.03483 19500 ft 375 kts 278°
2026-04-28 20:14 36.64832 11.00241 18999 ft 372 kts 278°
2026-04-28 20:14 36.65230 10.97123 18547 ft 368 kts 278°
2026-04-28 20:14 36.65628 10.93981 18055 ft 365 kts 278°
2026-04-28 20:15 36.66021 10.90876 17585 ft 361 kts 278°
2026-04-28 20:15 36.66409 10.87804 17127 ft 357 kts 278°
2026-04-28 20:15 36.66793 10.84762 16661 ft 354 kts 278°
2026-04-28 20:15 36.67172 10.81734 16189 ft 352 kts 278°
2026-04-28 20:16 36.67549 10.78732 15718 ft 350 kts 278°
2026-04-28 20:16 36.67922 10.75757 15237 ft 348 kts 278°
2026-04-28 20:16 36.68294 10.72778 14745 ft 346 kts 278°
2026-04-28 20:16 36.68663 10.69816 14244 ft 345 kts 278°
2026-04-28 20:17 36.69135 10.66832 13757 ft 356 kts 284°
2026-04-28 20:17 36.70179 10.64057 13093 ft 358 kts 305°
2026-04-28 20:17 36.71993 10.61915 12468 ft 360 kts 326°
2026-04-28 20:17 36.74295 10.60696 11871 ft 362 kts 342°
2026-04-28 20:18 36.76700 10.59873 11493 ft 354 kts 343°
2026-04-28 20:18 36.78262 10.59357 11406 ft 344 kts 343°
2026-04-28 20:18 36.81283 10.58364 11238 ft 326 kts 343°
2026-04-28 20:18 36.83429 10.57655 11115 ft 314 kts 341°
2026-04-28 20:19 36.85352 10.56510 10994 ft 299 kts 325°
2026-04-28 20:19 36.87051 10.55092 10876 ft 289 kts 323°
2026-04-28 20:19 36.88678 10.53699 10734 ft 278 kts 323°
2026-04-28 20:19 36.89724 10.52801 10675 ft 272 kts 323°
2026-04-28 20:20 36.91745 10.51068 10488 ft 260 kts 323°
2026-04-28 20:20 36.93226 10.49797 10254 ft 256 kts 323°
2026-04-28 20:20 36.94691 10.48541 9964 ft 254 kts 323°
2026-04-28 20:20 36.95659 10.47711 9731 ft 254 kts 323°
2026-04-28 20:21 36.97111 10.46466 9396 ft 253 kts 323°
2026-04-28 20:21 36.98560 10.45226 9039 ft 252 kts 323°
2026-04-28 20:21 37.00008 10.43992 8669 ft 252 kts 323°
2026-04-28 20:21 37.01931 10.42359 8189 ft 251 kts 323°
2026-04-28 20:22 37.02908 10.41530 7944 ft 251 kts 323°
2026-04-28 20:22 37.04351 10.40309 7583 ft 251 kts 323°
2026-04-28 20:22 37.05798 10.39082 7221 ft 250 kts 323°
2026-04-28 20:22 37.07232 10.37854 6866 ft 250 kts 320°
2026-04-28 20:23 37.08339 10.36251 6519 ft 242 kts 291°
2026-04-28 20:23 37.08899 10.34298 6123 ft 241 kts 283°
2026-04-28 20:23 37.09130 10.32227 5750 ft 235 kts 258°
2026-04-28 20:23 37.08565 10.30383 5340 ft 229 kts 232°
2026-04-28 20:24 37.07427 10.29029 4815 ft 225 kts 208°
2026-04-28 20:24 37.06008 10.28407 4610 ft 208 kts 191°
2026-04-28 20:24 37.04648 10.28036 4460 ft 190 kts 192°
2026-04-28 20:24 37.03391 10.27693 4048 ft 182 kts 191°
2026-04-28 20:25 37.02167 10.27358 3580 ft 177 kts 191°
2026-04-28 20:25 37.00974 10.27032 3083 ft 175 kts 191°
2026-04-28 20:25 36.99791 10.26708 2701 ft 175 kts 191°
2026-04-28 20:25 36.98606 10.26384 2409 ft 173 kts 191°
2026-04-28 20:26 36.97439 10.26066 2173 ft 172 kts 190°
2026-04-28 20:26 36.96213 10.25732 1933 ft 188 kts 189°
2026-04-28 20:26 36.94942 10.25384 1676 ft 181 kts 190°
2026-04-28 20:26 36.93767 10.25062 1445 ft 166 kts 190°
2026-04-28 20:27 36.92690 10.24767 1235 ft 150 kts 190°
2026-04-28 20:27 36.91713 10.24500 1062 ft 138 kts 189°
2026-04-28 20:27 36.90800 10.24251 873 ft 134 kts 189°
2026-04-28 20:27 36.89891 10.24015 670 ft 134 kts 188°
2026-04-28 20:28 36.88972 10.23762 476 ft 136 kts 190°
2026-04-28 20:28 36.88040 10.23499 316 ft 136 kts 188°
2026-04-28 20:28 36.87121 10.23247 168 ft 136 kts 189°
2026-04-28 20:28 36.86213 10.22992 35 ft 126 kts 188°
2026-04-28 20:29 36.85494 10.22809 32 ft 81 kts 191°
2026-04-28 20:29 36.85113 10.22702 35 ft 23 kts 192°
2026-04-28 20:29 36.85002 10.22672 34 ft 14 kts 193°
2026-04-28 20:29 36.84924 10.22617 33 ft 12 kts 272°
2026-04-28 20:30 36.84952 10.22521 31 ft 12 kts 296°
2026-04-28 20:30 36.84966 10.22485 31 ft 0 kts 293°
2026-04-28 20:30 36.84977 10.22449 30 ft 11 kts 289°
2026-04-28 20:30 36.84943 10.22383 31 ft 12 kts 202°
2026-04-28 20:31 36.84872 10.22322 30 ft 12 kts 265°
2026-04-28 20:31 36.84884 10.22222 30 ft 11 kts 279°
2026-04-28 20:31 36.84880 10.22134 30 ft 10 kts 257°
2026-04-28 20:31 36.84858 10.22061 30 ft 8 kts 223°
2026-04-28 20:32 36.84809 10.22037 30 ft 8 kts 195°
2026-04-28 20:32 36.84744 10.22016 30 ft 10 kts 210°
2026-04-28 20:32 36.84695 10.21973 30 ft 8 kts 200°
2026-04-28 20:32 36.84661 10.21959 30 ft 0 kts 198°